Home > Weather > Liège > Past weeks

Flag for Belgium Past Weather in Liège, Belgium — Yesterday and Last 2 Weeks

Now
55 °F

Scattered clouds.


Feels Like: 55 °F
Forecast: 48 / 70 °F
Wind: 3 mph from North

Location: Bierset

Current Time: May 25, 2016 at 1:21:12 PM

Latest Report: May 25, 2016 at 12:50 PM


Visibility: N/A

Pressure: 29.98 "Hg

Humidity: 72%

Dew Point: 46 °F

Location of LiègeLocation

Past Weather in Liège — Graph

°F

Liège Temperature Yesterday

Maximum temperature yesterday: 55 °F (at 3:50 PM)
Minimum temperature yesterday: 48 °F (at 3:50 AM)
Average temperature yesterday: 51 °F

High & Low Weather Summary for the Past Weeks

 TemperatureHumidityPressure
High75 °F (May 11, 5:20 PM)94% (May 13, 3:20 AM)30.15 "Hg (May 13, 3:20 AM)
Low39 °F (May 15, 1:20 AM)38% (May 13, 6:20 PM)29.50 "Hg (May 12, 5:20 AM)
Average56 °F71%29.89 "Hg
* Reported May 10 11:20 AM — May 25 11:50 AM, Liège, Weather by CustomWeather, © 2016

Note: Actual official high and low records may vary slightly from our data, if they occured in-between our weather recording intervals... More about our weather records

Advertising

Liège Weather History for the Previous 24 Hours

Scroll right to see more
 ConditionsComfort  
Time TempWeatherWind HumidityBarometerVisibility
11:50 AM
Wed, May 25
55 °FScattered clouds.2 mph72%29.98 "Hg6 mi
11:20 AM54 °FPassing clouds.2 mph72%30.01 "Hg6 mi
10:50 AM52 °FPassing clouds.2 mph82%29.98 "Hg6 mi
10:20 AM52 °FPassing clouds.2 mph77%30.01 "Hg6 mi
9:50 AM50 °FPassing clouds.1 mph82%30.01 "Hg6 mi
9:20 AM50 °FPassing clouds.1 mph82%30.01 "Hg6 mi
8:50 AM48 °FPassing clouds.1 mph87%30.01 "Hg6 mi
8:20 AM48 °FPassing clouds.No wind82%30.01 "Hg6 mi
7:50 AM46 °FPassing clouds.1 mph87%30.01 "Hg6 mi
7:20 AM46 °FPartly sunny.1 mph87%30.01 "Hg6 mi
6:50 AM46 °FPartly sunny.1 mph87%30.01 "Hg6 mi
6:20 AM46 °FPassing clouds.2 mph87%29.98 "Hg5 mi
5:50 AM46 °FPassing clouds.3 mph87%29.98 "Hg5 mi
5:20 AM46 °FPassing clouds.3 mph87%30.01 "Hg6 mi
4:50 AM46 °FPassing clouds.2 mph87%29.98 "Hg6 mi
4:20 AM46 °FPassing clouds.2 mph87%30.01 "HgN/A
3:50 AM46 °FPassing clouds.2 mph87%30.01 "HgN/A
3:20 AM46 °FPassing clouds.2 mph87%30.01 "HgN/A
2:50 AM45 °FPassing clouds.5 mph87%30.01 "HgN/A
2:20 AM46 °FPassing clouds.2 mph87%30.01 "HgN/A
1:50 AM48 °FPassing clouds.3 mph82%30.01 "HgN/A
1:20 AM48 °FPassing clouds.6 mph82%30.01 "HgN/A
12:50 AM48 °FPassing clouds.3 mph82%30.04 "HgN/A
12:20 AM48 °FPartly cloudy.5 mph82%30.04 "HgN/A
11:50 PM
Tue, May 24
48 °FPartly cloudy.6 mph82%30.04 "HgN/A
11:20 PM48 °FPassing clouds.6 mph82%30.01 "HgN/A
10:50 PM48 °FPassing clouds.5 mph87%30.01 "HgN/A
10:20 PM50 °FPartly sunny.7 mph82%30.01 "HgN/A
9:50 PM52 °FPartly sunny.8 mph82%30.01 "HgN/A
9:20 PM52 °FPartly sunny.7 mph77%30.01 "HgN/A
8:50 PM54 °FBroken clouds.9 mph72%30.01 "HgN/A
8:20 PM54 °FBroken clouds.7 mph72%30.01 "HgN/A
7:50 PM55 °FBroken clouds.6 mph67%30.01 "HgN/A
7:20 PM55 °FScattered clouds.5 mph67%30.01 "HgN/A
6:50 PM55 °FScattered clouds.5 mph63%30.01 "HgN/A
6:20 PM55 °FScattered clouds.5 mph67%30.01 "HgN/A
5:50 PM55 °FScattered clouds.7 mph67%30.01 "HgN/A
5:20 PM55 °FBroken clouds.7 mph67%30.01 "HgN/A
4:50 PM55 °FBroken clouds.6 mph67%30.04 "HgN/A
4:20 PM55 °FBroken clouds.7 mph63%30.04 "HgN/A
3:50 PM55 °FBroken clouds.6 mph67%30.04 "HgN/A
3:20 PM54 °FBroken clouds.6 mph72%30.04 "HgN/A
2:50 PM54 °FBroken clouds.7 mph72%30.04 "HgN/A
2:20 PM54 °FBroken clouds.7 mph67%30.07 "HgN/A
1:50 PM54 °FBroken clouds.8 mph67%30.07 "HgN/A
1:20 PM52 °FBroken clouds.7 mph77%30.07 "HgN/A
Weather by CustomWeather, © 2016

See weather overviewHow to use our weather pages